Satellite-Ground Cal/Val Site Overpasses Predictions

Prediction of Satellite NPP Overpassing Cal/Val Site: Antarctic Dome C

Ground Cal/Val Site Location: Latitude: -75.10, Longitude: 123.35; Satellite-Ground Site NADIR distance within 100 km.

Table of predicted overpasses for the next 14.0 days since TLE Epoch: 10/10/2014
Interval Starting Time Ending Time Minimum Distance Time Minimum Distance (km)
1 10/10/2014 14:51:18 10/10/2014 14:51:43 10/10/2014 14:51:31 46.62
2 10/11/2014 07:53:01 10/11/2014 07:53:21 10/11/2014 07:53:11 70.57
3 10/12/2014 07:34:09 10/12/2014 07:34:36 10/12/2014 07:34:23 37.16
4 10/15/2014 14:57:41 10/15/2014 14:58:10 10/15/2014 14:57:55 10.42
5 10/17/2014 07:40:33 10/17/2014 07:41:02 10/17/2014 07:40:47 2.18
6 10/20/2014 15:04:04 10/20/2014 15:04:33 10/20/2014 15:04:19 26.68
7 10/21/2014 14:45:23 10/21/2014 14:45:40 10/21/2014 14:45:31 80.52
8 10/22/2014 07:46:57 10/22/2014 07:47:24 10/22/2014 07:47:10 36.52


NCC Satellite Cal/Val Overpasses Prediction Service
